[[{"header":{"parameterUnit":"m.s-1","parameterCategory":2,"la1":30.2992,"la2":30.254,"lo1":-89.0895,"lo2":-89.0443,"dy":0.0025,"dx":0.0025,"nx":19,"ny":19,"refTime":"2026-05-07T09:00:00:Z","depth":"0","parameterNumber":2,"parameterNumberName":"U-component_of_CURRENTS"},"data":[0,0,0,0.2366,0.2367,0.2417,0.2417,0.2547,0.2548,0,0,0,0,0,0,0,0,0,0,0,0.2344,0.2345,0.2366,0.2367,0.2417,0.2417,0.2546,0.2548,0,0,0,0,0,0,0,0,0,0,0,0.2344,0.2345,0.2345,0.2368,0.2417,0.2417,0.2546,0.2491,0,0,0,0,0,0,0,0,0,0,0.2434,0.241,0.2344,0.2345,0.2368,0.2417,0.2417,0.2487,0.2494,0.2544,0,0.2552,0,0.256,0.2559,0.2559,0,0,0,0.2362,0.2404,0.2416,0.2345,0.2369,0.2417,0.2393,0.2491,0.2499,0.2554,0.2554,0.2558,0.2562,0.256,0.256,0.2755,0.2756,0,0,0.236,0.2357,0.2411,0.2421,0.2384,0.2392,0.2395,0.2495,0.2507,0.2554,0.2561,0.2565,0.2561,0.2562,0.2754,0.2756,0,0,0,0.2355,0.2356,0.2364,0.2416,0.2424,0.2393,0.2397,0.2502,0.2505,0.2563,0.2566,0.2562,0.2563,0.2753,0.2755,0.2846,0,0,0,0.2353,0.2353,0.2363,0.2362,0.2422,0.2457,0.2402,0.2497,0.2509,0.2565,0.2562,0.2565,0.2752,0.2754,0.2842,0.2855,0,0,0,0.2341,0.2352,0.2358,0.2362,0.2386,0.2454,0.2462,0.2499,0.2512,0.2559,0.2565,0.2752,0.2754,0.2837,0.2849,0.2933,0,0,0,0.2337,0.2355,0.2358,0.2388,0.2386,0.2458,0.2461,0.2499,0.2536,0.2562,0.2752,0.2755,0.2836,0.2845,0.2929,0.2888,0.2905,0,0,0.2356,0.2357,0.2376,0.238,0.2448,0.245,0.2558,0.2585,0.2596,0.2721,0.2725,0.2843,0.2849,0.2933,0.3018,0.3031,0,0,0,0.238,0.2394,0.2416,0.2456,0.2504,0.2589,0.2617,0.2664,0.2761,0.2631,0.2863,0.2864,0.2914,0.288,0.2892,0.2777,0.2765,0.2765,0.2765,0.2396,0.2425,0.2476,0.2531,0.2591,0.2687,0.2762,0.2839,0.284,0.29,0.2955,0.3098,0.3065,0.3072,0.2956,0.2987,0.2987,0.2988,0.2988,0.2428,0.2465,0.2522,0.2576,0.2679,0.2775,0.2937,0.2965,0.3116,0.3074,0.312,0.2997,0.309,0.2961,0.2994,0.2993,0.2992,0.2992,0.2991,0.2429,0.246,0.2484,0.2587,0.2705,0.2831,0.2983,0.3103,0.318,0.3242,0.3216,0.3213,0.3084,0.3282,0.3282,0.3283,0.3283,0.3284,0.3284,0.2429,0.2465,0.2519,0.2616,0.2678,0.2819,0.3027,0.3131,0.327,0.3301,0.3301,0.3119,0.3187,0.3158,0.3291,0.329,0.3289,0.3288,0.3288,0.2482,0.2489,0.2548,0.26,0.2718,0.2765,0.2981,0.3152,0.3293,0.3338,0.3224,0.334,0.3304,0.3293,0.3267,0.342,0.342,0.342,0.342,0.2523,0.2534,0.2582,0.2617,0.2688,0.274,0.2792,0.296,0.3132,0.3162,0.3216,0.3119,0.3118,0.3065,0.3059,0.3025,0.3114,0.3113,0.3113,0.2599,0.2586,0.2607,0.2595,0.2637,0.2649,0.2596,0.2621,0.2888,0.3089,0.3071,0.3084,0.2928,0.2936,0.2836,0.2837,0.2775,0,0]},{"header":{"parameterUnit":"m.s-1","parameterCategory":2,"la1":30.2992,"la2":30.254,"lo1":-89.0895,"lo2":-89.0443,"dy":0.0025,"dx":0.0025,"nx":19,"ny":19,"refTime":"2026-05-07T09:00:00:Z","depth":"0","parameterNumber":3,"parameterNumberName":"V-component_of_CURRENTS"},"data":[0,0,0,0.0404,0.0404,0.036,0.036,0.0328,0.0327,0,0,0,0,0,0,0,0,0,0,0,0.0421,0.0421,0.0404,0.0404,0.0361,0.036,0.0328,0.0327,0,0,0,0,0,0,0,0,0,0,0,0.0421,0.0421,0.0421,0.0403,0.0361,0.036,0.0328,0.0352,0,0,0,0,0,0,0,0,0,0,0.0391,0.0408,0.0421,0.0421,0.0403,0.0361,0.036,0.0353,0.0351,0.0356,0,0.0356,0,0.0345,0.0327,0.0327,0,0,0,0.0395,0.041,0.0398,0.0421,0.0403,0.0361,0.0377,0.0352,0.0349,0.0353,0.0355,0.0354,0.0344,0.0327,0.0326,0.0441,0.0443,0,0,0.0397,0.0411,0.04,0.0397,0.0401,0.0379,0.0376,0.035,0.0352,0.0355,0.0353,0.0344,0.0326,0.0326,0.044,0.0442,0,0,0,0.041,0.0413,0.0401,0.0398,0.0391,0.0378,0.0375,0.0353,0.0349,0.0353,0.0343,0.0326,0.0326,0.0439,0.0441,0.0604,0,0,0,0.0411,0.0421,0.0403,0.041,0.0391,0.0369,0.0378,0.0351,0.0347,0.0343,0.0326,0.0326,0.0437,0.044,0.0597,0.0697,0,0,0,0.0421,0.0422,0.042,0.0411,0.0396,0.0369,0.0363,0.0349,0.0342,0.0327,0.0326,0.0436,0.0439,0.059,0.0685,0.0734,0,0,0,0.0433,0.0458,0.042,0.0452,0.0397,0.0433,0.0363,0.0369,0.0363,0.0326,0.0437,0.0441,0.0588,0.0677,0.0727,0.072,0.0752,0,0,0.0476,0.0463,0.0486,0.0452,0.052,0.0438,0.0529,0.0475,0.0418,0.0442,0.0444,0.0599,0.0684,0.0733,0.0907,0.0933,0,0,0,0.0509,0.0532,0.0543,0.0571,0.0572,0.0633,0.0566,0.0565,0.059,0.0431,0.0619,0.0668,0.0693,0.0675,0.0697,0.0554,0.0456,0.0455,0.0455,0.0578,0.0597,0.0676,0.0713,0.0742,0.0765,0.081,0.0806,0.0707,0.0757,0.0815,0.099,0.0975,0.0991,0.0845,0.0815,0.0815,0.0816,0.0816,0.0692,0.0758,0.0804,0.089,0.0952,0.1024,0.1074,0.104,0.11,0.1,0.1013,0.0867,0.1024,0.086,0.0827,0.0825,0.0824,0.0823,0.0822,0.0754,0.0803,0.0858,0.1005,0.1146,0.12,0.1341,0.1345,0.1274,0.132,0.1218,0.1214,0.1052,0.1292,0.1293,0.1294,0.1295,0.1295,0.1295,0.0806,0.0874,0.0985,0.1133,0.1227,0.1383,0.1501,0.1532,0.1506,0.1425,0.1423,0.1114,0.1134,0.1095,0.1307,0.1305,0.1303,0.1302,0.1301,0.0914,0.093,0.1071,0.1173,0.1396,0.1552,0.1652,0.1705,0.1702,0.1676,0.1346,0.145,0.1388,0.1368,0.1334,0.1595,0.1595,0.1595,0.1595,0.0973,0.1001,0.1156,0.129,0.1478,0.1626,0.1782,0.1832,0.1636,0.1491,0.1388,0.1261,0.1255,0.1176,0.116,0.1117,0.1317,0.1316,0.1316,0.1067,0.1081,0.1188,0.1299,0.1499,0.1682,0.1837,0.1916,0.1573,0.1288,0.1201,0.1213,0.1002,0.1005,0.0852,0.0841,0.076,0,0]}],[{"header":{"parameterUnit":"m.s-1","parameterCategory":2,"la1":30.2992,"la2":30.254,"lo1":-89.0895,"lo2":-89.0443,"dy":0.0025,"dx":0.0025,"nx":19,"ny":19,"refTime":"2026-05-07T09:00:00:Z","depth":"2","parameterNumber":2,"parameterNumberName":"U-component_of_CURRENTS"},"data":[0,0,0,0.2169,0.2171,0.222,0.222,0.2336,0.2337,0,0,0,0,0,0,0,0,0,0,0,0.2126,0.2126,0.2169,0.2171,0.222,0.222,0.2335,0.2337,0,0,0,0,0,0,0,0,0,0,0,0.2126,0.2126,0.2126,0.2171,0.222,0.222,0.2335,0.2281,0,0,0,0,0,0,0,0,0,0,0.2225,0.2199,0.2126,0.2126,0.2172,0.222,0.222,0.2278,0.2285,0.2333,0,0.2331,0,0.2358,0.2347,0.2348,0,0,0,0.2155,0.2193,0.2199,0.2126,0.2172,0.222,0.2193,0.2281,0.2289,0.2343,0.2333,0.2338,0.236,0.2348,0.2349,0.2535,0.2536,0,0,0.2153,0.2148,0.2193,0.2203,0.2175,0.2192,0.2195,0.2285,0.2296,0.2334,0.2341,0.2362,0.235,0.2351,0.2534,0.2535,0,0,0,0.2155,0.2147,0.2148,0.2198,0.2215,0.2194,0.2197,0.2291,0.2289,0.2342,0.2363,0.235,0.2352,0.2533,0.2534,0.262,0,0,0,0.2153,0.2149,0.2147,0.2147,0.2212,0.2253,0.2201,0.2281,0.2293,0.2363,0.235,0.2354,0.2532,0.2534,0.2616,0.2636,0,0,0,0.2126,0.2148,0.2147,0.2146,0.2176,0.2251,0.2254,0.2283,0.2308,0.2348,0.2354,0.2531,0.2533,0.2612,0.263,0.268,0,0,0,0.2128,0.2135,0.2146,0.2172,0.2176,0.2245,0.2253,0.2305,0.2339,0.2351,0.2532,0.2534,0.2611,0.2626,0.2676,0.2586,0.2597,0,0,0.2139,0.2137,0.2153,0.2165,0.2239,0.2237,0.2344,0.2381,0.2392,0.2501,0.2505,0.2617,0.2629,0.2679,0.2706,0.2713,0,0,0,0.2159,0.217,0.2192,0.224,0.2287,0.2392,0.2415,0.2456,0.255,0.2427,0.2635,0.264,0.2669,0.2607,0.2614,0.2544,0.2544,0.2544,0.2543,0.2168,0.2202,0.2256,0.232,0.2383,0.2497,0.256,0.2628,0.2621,0.2685,0.2725,0.2838,0.2776,0.2779,0.275,0.275,0.2751,0.2751,0.2751,0.2197,0.2237,0.2311,0.2377,0.2504,0.2604,0.2746,0.2767,0.2864,0.2843,0.2867,0.2719,0.279,0.2758,0.2757,0.2756,0.2755,0.2755,0.2754,0.2206,0.2236,0.2279,0.2403,0.2546,0.2678,0.2821,0.2916,0.2938,0.297,0.2897,0.2893,0.287,0.2994,0.2995,0.2995,0.2995,0.2996,0.2996,0.22,0.2248,0.2321,0.2434,0.2522,0.2677,0.2889,0.2942,0.2994,0.2975,0.2974,0.292,0.2912,0.2884,0.3001,0.3,0.3,0.2999,0.2999,0.2251,0.226,0.2357,0.2436,0.2588,0.2641,0.2838,0.2894,0.2978,0.2922,0.2971,0.2969,0.2926,0.2919,0.2892,0.3004,0.3004,0.3004,0.3004,0.2292,0.2298,0.2412,0.2492,0.2586,0.2636,0.2587,0.2533,0.2626,0.2648,0.2662,0.2566,0.2576,0.2506,0.2508,0.2469,0.2471,0.247,0.2468,0.2373,0.2385,0.2465,0.2494,0.2562,0.2575,0.2377,0.2106,0.2165,0.2438,0.2472,0.2987,0.2884,0.2884,0.2803,0.2797,0.2745,0,0]},{"header":{"parameterUnit":"m.s-1","parameterCategory":2,"la1":30.2992,"la2":30.254,"lo1":-89.0895,"lo2":-89.0443,"dy":0.0025,"dx":0.0025,"nx":19,"ny":19,"refTime":"2026-05-07T09:00:00:Z","depth":"2","parameterNumber":3,"parameterNumberName":"V-component_of_CURRENTS"},"data":[0,0,0,0.0179,0.0179,0.0138,0.0137,0.0083,0.0083,0,0,0,0,0,0,0,0,0,0,0,0.0185,0.0185,0.018,0.0179,0.0138,0.0137,0.0083,0.0083,0,0,0,0,0,0,0,0,0,0,0,0.0185,0.0185,0.0184,0.0179,0.0138,0.0137,0.0083,0.0111,0,0,0,0,0,0,0,0,0,0,0.015,0.0167,0.0185,0.0184,0.0179,0.0138,0.0137,0.0112,0.0109,0.0106,0,0.0102,0,0.0102,0.008,0.008,0,0,0,0.0164,0.0169,0.0156,0.0184,0.0179,0.0138,0.0152,0.011,0.0107,0.0102,0.0102,0.01,0.0101,0.008,0.008,0.0138,0.0139,0,0,0.0166,0.0178,0.0159,0.0154,0.0172,0.0154,0.0151,0.0108,0.0108,0.0102,0.0099,0.01,0.008,0.008,0.0137,0.0138,0,0,0,0.0183,0.018,0.0167,0.0156,0.0155,0.0153,0.015,0.011,0.0105,0.0098,0.01,0.008,0.0079,0.0136,0.0137,0.0284,0,0,0,0.0184,0.019,0.0168,0.0175,0.0156,0.0135,0.0152,0.0107,0.0103,0.01,0.008,0.0079,0.0135,0.0137,0.0277,0.0358,0,0,0,0.0186,0.0191,0.0187,0.0175,0.0165,0.0135,0.0127,0.0106,0.0105,0.008,0.0079,0.0134,0.0136,0.0272,0.0348,0.0365,0,0,0,0.0198,0.0209,0.0187,0.0205,0.0166,0.0187,0.0128,0.0134,0.0121,0.008,0.0135,0.0137,0.027,0.0342,0.036,0.0364,0.0388,0,0,0.0222,0.0212,0.0225,0.0205,0.0256,0.0192,0.0252,0.0204,0.0152,0.0144,0.0145,0.0279,0.0347,0.0364,0.0486,0.0507,0,0,0,0.024,0.0256,0.0263,0.0288,0.0288,0.0348,0.0276,0.0269,0.0276,0.0157,0.0281,0.032,0.0325,0.0317,0.0334,0.0147,0.0147,0.0147,0.0147,0.0289,0.0304,0.0359,0.0387,0.0413,0.0445,0.0469,0.0452,0.0361,0.0399,0.044,0.0559,0.0554,0.0566,0.043,0.0431,0.0432,0.0432,0.0432,0.0366,0.0411,0.0457,0.0527,0.0597,0.0655,0.0679,0.0649,0.0646,0.058,0.0576,0.0475,0.0594,0.0444,0.0442,0.044,0.0439,0.0438,0.0438,0.0415,0.0445,0.05,0.0628,0.0758,0.0811,0.0917,0.0907,0.0805,0.082,0.0736,0.0732,0.0627,0.0798,0.0798,0.0799,0.0799,0.0799,0.08,0.0447,0.05,0.0595,0.0726,0.0819,0.0965,0.1073,0.1062,0.1009,0.0907,0.0905,0.0681,0.0669,0.0646,0.0807,0.0806,0.0805,0.0804,0.0803,0.0524,0.0526,0.0672,0.077,0.0986,0.1141,0.1206,0.1208,0.1169,0.109,0.0921,0.0916,0.0857,0.0841,0.0821,0.1017,0.1017,0.1017,0.1017,0.056,0.0572,0.0755,0.0903,0.1096,0.1226,0.1351,0.1274,0.1113,0.099,0.0991,0.0918,0.0911,0.0847,0.0831,0.0808,0.1001,0.1001,0.1,0.0631,0.0667,0.082,0.095,0.1145,0.1344,0.145,0.1344,0.1056,0.0996,0.0944,0.1025,0.0916,0.0905,0.0798,0.0777,0.0735,0,0]}],[{"header":{"parameterUnit":"m.s-1","parameterCategory":2,"la1":30.2992,"la2":30.254,"lo1":-89.0895,"lo2":-89.0443,"dy":0.0025,"dx":0.0025,"nx":19,"ny":19,"refTime":"2026-05-07T09:00:00:Z","depth":"4","parameterNumber":2,"parameterNumberName":"U-component_of_CURRENTS"},"data":[0,0,0,0.1164,0.1167,0.1314,0.1315,0.1433,0.1434,0,0,0,0,0,0,0,0,0,0,0,0.1125,0.1126,0.1164,0.1167,0.1314,0.1315,0.1433,0.1434,0,0,0,0,0,0,0,0,0,0,0,0.1125,0.1126,0.1128,0.1167,0.1314,0.1315,0.1433,0.1342,0,0,0,0,0,0,0,0,0,0,0.1209,0.1181,0.1126,0.1128,0.1168,0.1313,0.1315,0.1339,0.1348,0.1343,0,0.1373,0,0.1394,0.1439,0.1439,0,0,0,0.1179,0.1174,0.1207,0.1128,0.1169,0.1313,0.1251,0.1344,0.1354,0.1354,0.1375,0.1379,0.1396,0.1439,0.144,0.1557,0.1557,0,0,0.1171,0.1156,0.12,0.1214,0.1216,0.1246,0.1255,0.1351,0.1367,0.1375,0.1382,0.1398,0.144,0.1441,0.1556,0.1557,0,0,0,0.114,0.1151,0.1184,0.1209,0.1235,0.125,0.1261,0.1363,0.1373,0.1384,0.1399,0.144,0.1441,0.1555,0.1556,0.1617,0,0,0,0.1135,0.1131,0.118,0.1173,0.1233,0.131,0.127,0.1367,0.1379,0.1399,0.144,0.1442,0.1555,0.1556,0.1613,0.1631,0,0,0,0.1117,0.1129,0.1148,0.1172,0.1228,0.1309,0.1326,0.1371,0.1387,0.1439,0.1442,0.1554,0.1556,0.1611,0.1626,0.1629,0,0,0,0.1094,0.1118,0.1148,0.1179,0.1227,0.1301,0.1326,0.1399,0.1447,0.1441,0.1555,0.1556,0.161,0.1623,0.1627,0.1384,0,0,0,0.1102,0.1119,0.1133,0.1163,0.1212,0.1281,0.1362,0.144,0.147,0.1518,0.1522,0.1615,0.1626,0.1629,0.1485,0,0,0,0,0.112,0.1138,0.1152,0.12,0.1255,0.1319,0.1409,0.1469,0.1572,0.1504,0.1631,0.1637,0.1636,0.1489,0.1564,0.1564,0.1564,0.1564,0.1564,0.1107,0.1141,0.1168,0.1212,0.1264,0.1379,0.1465,0.1569,0.1591,0.1658,0.1699,0.176,0.1611,0.1718,0.1718,0.1719,0.1719,0.1719,0.1719,0.1102,0.1107,0.1177,0.1217,0.129,0.139,0.1526,0.1602,0.1762,0.1761,0.1758,0.158,0.1725,0.1724,0.1723,0.1723,0.1722,0.1722,0.1721,0.1078,0.1077,0.1131,0.1191,0.1298,0.1393,0.1475,0.1617,0.1782,0.1859,0.1671,0.1791,0.1769,0.1851,0.1851,0.1851,0.1851,0.1851,0.1851,0.1004,0.1054,0.1049,0.1149,0.1184,0.1247,0.1451,0.1536,0.1702,0.1708,0.1868,0.1803,0.1799,0.1776,0.1853,0.1853,0.1852,0.1852,0.1852,0.0884,0.0927,0.0895,0.0907,0.0973,0.1022,0.1218,0.137,0.1483,0.1531,0.1612,0.1623,0.1569,0.157,0.1536,0.1545,0.1542,0.1539,0,0.0759,0.0795,0.0696,0.0655,0.0671,0.0823,0.0929,0.1094,0.1294,0.1246,0.1459,0.154,0.1551,0.1477,0.1474,0.1426,0,0,0,0.0598,0.06,0.0479,0.0496,0.051,0.0686,0.0935,0.0976,0.1268,0.1318,0.1467,0.1486,0.1655,0.1859,0.1801,0.1796,0.1754,0,0]},{"header":{"parameterUnit":"m.s-1","parameterCategory":2,"la1":30.2992,"la2":30.254,"lo1":-89.0895,"lo2":-89.0443,"dy":0.0025,"dx":0.0025,"nx":19,"ny":19,"refTime":"2026-05-07T09:00:00:Z","depth":"4","parameterNumber":3,"parameterNumberName":"V-component_of_CURRENTS"},"data":[0,0,0,-0.0048,-0.0048,-0.0073,-0.0073,-0.0143,-0.0144,0,0,0,0,0,0,0,0,0,0,0,-0.0039,-0.0039,-0.0048,-0.0048,-0.0073,-0.0073,-0.0143,-0.0144,0,0,0,0,0,0,0,0,0,0,0,-0.0039,-0.0039,-0.0039,-0.0048,-0.0073,-0.0073,-0.0143,-0.0117,0,0,0,0,0,0,0,0,0,0,-0.0089,-0.0074,-0.0039,-0.0039,-0.0048,-0.0073,-0.0073,-0.0115,-0.0118,-0.0141,0,-0.0139,0,-0.0141,-0.0149,-0.0149,0,0,0,-0.0056,-0.0071,-0.0075,-0.0039,-0.0048,-0.0073,-0.0064,-0.0117,-0.012,-0.0146,-0.014,-0.0142,-0.0142,-0.0149,-0.015,-0.0194,-0.0194,0,0,-0.0055,-0.005,-0.0072,-0.0077,-0.0048,-0.0063,-0.0065,-0.0119,-0.0122,-0.014,-0.0144,-0.0143,-0.015,-0.015,-0.0194,-0.0194,0,0,0,-0.0045,-0.0049,-0.0051,-0.0074,-0.0075,-0.0064,-0.0065,-0.012,-0.012,-0.0144,-0.0144,-0.015,-0.0151,-0.0194,-0.0194,-0.0147,0,0,0,-0.0045,-0.0043,-0.005,-0.0049,-0.0073,-0.0092,-0.0065,-0.0116,-0.0122,-0.0144,-0.015,-0.0152,-0.0194,-0.0194,-0.0149,-0.0132,0,0,0,-0.004,-0.0043,-0.0042,-0.0048,-0.0055,-0.0091,-0.0094,-0.0117,-0.0122,-0.0149,-0.0152,-0.0194,-0.0194,-0.015,-0.0134,-0.01,0,0,0,-0.0039,-0.0036,-0.0042,-0.004,-0.0054,-0.0062,-0.0094,-0.0106,-0.0125,-0.0151,-0.0194,-0.0194,-0.015,-0.0136,-0.0102,-0.0025,0,0,0,-0.0034,-0.0035,-0.0033,-0.0039,-0.0038,-0.006,-0.0068,-0.0104,-0.0133,-0.0181,-0.0181,-0.0148,-0.0134,-0.0101,-0.0017,0,0,0,0,-0.0031,-0.0029,-0.003,-0.003,-0.0038,-0.0066,-0.009,-0.0099,-0.0129,-0.0142,-0.0158,-0.0151,-0.0131,-0.0092,-0.0193,-0.0193,-0.0193,-0.0193,-0.0193,-0.0022,-0.0022,-0.0018,-0.003,-0.0039,-0.0061,-0.0069,-0.0091,-0.0115,-0.012,-0.012,-0.0074,-0.0032,-0.0127,-0.0127,-0.0127,-0.0127,-0.0127,-0.0127,-0.0011,-0.0009,-0.001,-0.0007,-0.0031,-0.0038,-0.007,-0.0076,-0.0061,-0.0098,-0.008,-0.0055,-0.0122,-0.0123,-0.0124,-0.0124,-0.0125,-0.0125,-0.0125,-0.001,-0.0009,-0.0001,0.0012,0.0016,-0.0014,0.002,-0.0017,-0.0032,-0.0002,0.0043,-0.0042,-0.0037,0.0012,0.0012,0.0013,0.0013,0.0013,0.0013,-0.0012,-0.0003,0.0035,0.0039,0.0079,0.0089,0.0074,0.0097,0.0063,0.0101,0.0014,-0.0027,-0.0032,-0.0029,0.0017,0.0016,0.0016,0.0015,0.0015,-0.0001,0.0018,0.009,0.0139,0.0235,0.0241,0.0203,0.0208,0.0251,0.0268,0.0158,0.015,0.0142,0.0133,0.0141,0.0239,0.0241,0.0242,0,0.0025,0.0029,0.0193,0.032,0.0401,0.0369,0.0419,0.0405,0.0337,0.0333,0.0274,0.015,0.0144,0.0133,0.0128,0.0137,0,0,0,0.0064,0.0121,0.027,0.0406,0.0515,0.05,0.0439,0.0442,0.0326,0.0366,0.0272,0.0264,0.0156,0.0027,-0.0005,-0.0011,-0.0009,0,0]}]]